EST,Max TemperatureF,Mean TemperatureF,Min TemperatureF,Max Dew PointF,MeanDew PointF,Min DewpointF,Max Humidity, Mean Humidity, Min Humidity, Max Sea Level PressureIn, Mean Sea Level PressureIn, Min Sea Level PressureIn, Max VisibilityMiles, Mean VisibilityMiles, Min VisibilityMiles, Max Wind SpeedMPH, Mean Wind SpeedMPH, Max Gust SpeedMPH,PrecipitationIn, CloudCover, Events, WindDirDegrees
2011-12-1,45,34,21,30,24,18,96,76,40,30.27,30.08,29.80,10,10,10,10,3,16,0.00,0,,295
2011-12-2,39,29,19,28,24,16,96,81,60,30.46,30.33,30.26,10,10,10,5,1,,0.00,3,,307
2011-12-3,41,31,21,27,23,20,92,75,49,30.69,30.61,30.48,10,10,10,6,2,,0.00,0,,195
2011-12-4,63,44,27,33,27,22,81,62,28,30.61,30.45,30.31,10,10,9,12,4,22,0.00,0,,192
2011-12-5,52,44,35,40,37,34,96,80,59,30.31,30.25,30.17,10,10,5,4,1,,0.00,0,,87
2011-12-6,57,48,39,54,47,38,100,97,87,30.15,30.00,29.93,10,5,0,6,1,,0.42,8,Fog-Rain,305
2011-12-7,45,41,37,44,40,37,100,98,93,29.93,29.80,29.54,10,6,0,6,2,,0.78,8,Fog-Rain,72
2011-12-8,39,31,23,38,25,13,100,71,39,30.21,29.76,29.37,10,9,6,20,6,39,0.37,3,Rain,282
2011-12-9,42,36,30,27,24,19,76,63,41,30.31,30.24,30.17,10,10,10,9,4,,0.00,3,,215
2011-12-10,37,32,27,28,18,10,85,58,37,30.40,30.23,30.12,10,10,10,14,4,23,0.00,3,,288
2011-12-11,35,29,23,16,13,10,69,53,35,30.58,30.52,30.40,10,10,10,8,5,,0.00,0,,233
2011-12-12,50,34,18,22,19,16,92,65,31,30.49,30.43,30.37,10,10,10,6,2,,0.00,0,,354
2011-12-13,46,32,17,28,22,13,96,77,35,30.37,30.35,30.31,10,10,10,4,0,,0.00,3,,355
2011-12-14,37,32,26,32,29,24,96,86,70,30.45,30.39,30.31,10,10,6,0,0,,0.00,7,,-1
2011-12-15,48,40,33,45,36,28,100,95,81,30.30,29.85,29.57,10,4,1,16,2,22,0.15,8,Rain-Snow,213
2011-12-16,48,42,35,44,29,22,90,62,49,30.02,29.84,29.53,10,10,10,17,8,31,0.00,3,,273
2011-12-17,35,26,12,27,16,5,86,65,46,30.20,30.08,29.99,10,10,9,10,3,17,0.00,4,Snow,346
2011-12-18,24,14,3,5,0,-9,88,66,23,30.30,30.25,30.20,10,10,10,8,2,,0.00,0,,342
2011-12-19,41,21,1,29,12,-3,87,65,48,30.25,29.97,29.74,10,10,10,15,3,22,0.00,3,,201
2011-12-20,42,26,9,30,10,2,88,54,29,30.22,30.08,29.78,10,10,10,15,9,28,0.00,1,,306
2011-12-21,33,20,7,32,26,4,100,91,74,30.20,29.88,29.60,10,6,2,5,1,,0.25,8,Rain,124
2011-12-22,50,40,30,39,31,27,100,81,44,30.08,29.82,29.57,10,7,2,14,2,29,0.01,4,,270
2011-12-23,37,29,19,34,30,11,100,90,60,30.20,29.97,29.89,10,5,1,14,1,22,0.32,7,Snow,321
2011-12-24,24,14,1,10,1,-5,87,57,28,30.53,30.41,30.20,10,10,10,8,3,,0.00,0,,29
2011-12-25,19,10,0,18,11,-4,93,85,77,30.53,30.22,29.89,10,5,1,0,0,,0.04,7,Snow,-1
2011-12-26,34,24,12,23,15,10,92,77,48,30.22,30.05,29.85,10,10,10,9,2,,0.00,2,,262
2011-12-27,37,22,7,34,25,3,100,89,62,30.12,29.77,29.36,10,6,2,8,2,,1.02,5,Rain,319
2011-12-28,51,35,19,49,34,7,100,82,55,29.50,29.25,29.17,10,7,0,21,6,33,0.26,6,Fog-Rain-Snow,246
2011-12-29,26,21,16,7,-4,-10,56,35,24,29.98,29.80,29.51,10,10,10,23,14,40,0.00,0,,270
2011-12-30,24,18,12,20,13,-1,86,72,44,30.19,30.11,29.99,10,8,1,4,1,,0.01,7,Snow,298
2011-12-31,34,29,24,34,29,21,100,97,88,30.14,29.90,29.81,10,3,0,5,0,,0.06,8,Fog-Rain,103